Palacios, TX

12:19 PM CDT on September 21, 2017 (GMT -0500)
Palacios Municipal

Weather History for KPSX - February, 2014

Change the Weather History Date:

Wednesday, February 5, 2014

  Actual Average Record
Temperature  
Mean Temperature 44 °F -  
Max Temperature 51 °F 61 °F 80 °F (1957)
Min Temperature 37 °F 44 °F 27 °F (1989)
Degree Days  
Heating Degree Days 21    
Moisture  
Dew Point 36 °F    
Average Humidity 79    
Maximum Humidity 100    
Minimum Humidity 50    
Precipitation  
Precipitation 0.00 in - - ()
Sea Level Pressure  
Sea Level Pressure 30.23 in    
Wind  
Wind Speed 13 mph (North)    
Max Wind Speed 29 mph    
Max Gust Speed 38 mph    
Visibility 6 miles    
Events Fog    
Averages and records for this station are not official NWS values.
T = Trace of Precipitation, MM = Missing Value Source: NWS Daily Summary

Daily Weather History Graph

Daily Weather History Graph

Search for Another Location

Airport or City:

Trip Planner

Search our weather history database for the weather conditions in past years. The results will help you decide how hot, cold, wet, or windy it might be!

Date:

Astronomy

Feb. 05, 2014 Rise Set
Actual Time 7:10 AM CST 6:07 PM CST
Civil Twilight 6:46 AM CST 6:32 PM CST
Nautical Twilight 6:18 AM CST 7:00 PM CST
Astronomical Twilight 5:50 AM CST 7:28 PM CST
Moon 11:00 AM CST (2/5) No Moon Set
Length of Visible Light 11h 45m
Length of Day
10h 56m
Waxing Crescent, 39% of the Moon is Illuminated
Feb 5
Waxing Crescent
Feb 6
First Quarter
Feb 14
Full
Feb 22
Last Quarter
Mar 1
New

Hourly Weather History & Observations

Time (CST) Temp. Windchill Dew Point Humidity Pressure Visibility Wind Dir Wind Speed Gust Speed Precip Events Conditions
12:24 AM 39.0 °F 33.4 °F 37.9 °F 96% 30.08 in 0.5 mi NNE 8.1 mph - N/A Fog Fog
12:53 AM 37.9 °F 32.7 °F 37.9 °F 100% 30.09 in 0.5 mi NNE 6.9 mph - N/A Fog Fog
1:37 AM 37.9 °F 32.1 °F 37.0 °F 97% 30.10 in 0.8 mi North 8.1 mph - N/A   Clear
1:53 AM 37.9 °F 32.7 °F 37.9 °F 100% 30.11 in 0.5 mi North 6.9 mph - N/A Fog Fog
2:23 AM 37.0 °F 31.6 °F 37.0 °F 100% 30.11 in 0.5 mi North 6.9 mph - N/A Fog Fog
2:53 AM 37.0 °F 31.0 °F 37.0 °F 100% 30.11 in 0.5 mi NNE 8.1 mph - N/A Fog Fog
3:49 AM 37.4 °F 32.8 °F 37.4 °F 100% 30.13 in 0.2 mi North 5.8 mph - N/A Fog Fog
3:53 AM 37.0 °F 31.6 °F 37.0 °F 100% 30.13 in 0.2 mi North 6.9 mph - N/A Fog Fog
4:13 AM 37.0 °F 30.4 °F 36.0 °F 96% 30.14 in 2.0 mi North 9.2 mph - N/A   Clear
4:21 AM 37.0 °F 31.0 °F 36.0 °F 96% 30.15 in 4.0 mi North 8.1 mph - N/A   Clear
4:53 AM 41.0 °F 35.2 °F 39.9 °F 96% 30.17 in 6.0 mi North 9.2 mph - N/A   Clear
5:53 AM 39.9 °F 33.4 °F 39.0 °F 97% 30.23 in 5.0 mi North 10.4 mph - N/A   Clear
6:53 AM 42.1 °F 34.5 °F 39.9 °F 92% 30.24 in 6.0 mi North 15.0 mph - N/A   Clear
7:53 AM 44.1 °F 36.8 °F 42.1 °F 93% 30.28 in 6.0 mi North 16.1 mph - N/A   Mostly Cloudy
8:30 AM 45.0 °F 36.6 °F 42.1 °F 90% 30.30 in 9.0 mi North 21.9 mph 32.2 mph N/A   Scattered Clouds
8:53 AM 46.0 °F 37.0 °F 41.0 °F 83% 30.31 in 10.0 mi North 27.6 mph 35.7 mph N/A   Partly Cloudy
10:53 AM 46.9 °F - 36.0 °F 66% 30.35 in 10.0 mi North 28.8 mph 35.7 mph N/A   Scattered Clouds
11:53 AM 48.9 °F - 36.0 °F 61% 30.32 in 10.0 mi North 28.8 mph 36.8 mph N/A   Clear
12:53 PM 48.9 °F - 35.1 °F 59% 30.29 in 10.0 mi North 28.8 mph 38.0 mph N/A   Clear
1:53 PM 51.1 °F - 35.1 °F 54% 30.27 in 10.0 mi North 24.2 mph 33.4 mph N/A   Clear
3:53 PM 51.1 °F - 33.1 °F 50% 30.26 in 10.0 mi North 23.0 mph - N/A   Clear
4:53 PM 48.9 °F - 32.0 °F 52% 30.26 in 10.0 mi North 21.9 mph - N/A   Clear
5:53 PM 46.9 °F - 32.0 °F 56% 30.27 in 10.0 mi NNE 15.0 mph - N/A   Clear
6:53 PM 46.0 °F 39.9 °F 32.0 °F 58% 30.31 in 10.0 mi North 13.8 mph - N/A   Overcast
7:53 PM 44.1 °F 36.2 °F 30.0 °F 58% 30.33 in 10.0 mi North 18.4 mph - N/A   Overcast
8:53 PM 43.0 °F 34.8 °F 30.0 °F 60% 30.34 in 10.0 mi North 18.4 mph - N/A   Overcast
9:53 PM 42.1 °F 33.9 °F 28.9 °F 60% 30.36 in 10.0 mi North 17.3 mph 25.3 mph N/A   Overcast
10:53 PM 41.0 °F 31.9 °F 28.0 °F 60% 30.37 in 10.0 mi North 19.6 mph - N/A   Overcast
11:53 PM 39.0 °F 28.8 °F 28.0 °F 65% 30.36 in 10.0 mi North 21.9 mph - N/A   Overcast